This is the latest recevied weather packets stored in our database for station/object KD4MBW. If no packets are shown the sender has not sent any weather packets the latest 10 day(s).
| Time | Temp. | Humidity | Pressure | Rain* | Wind** | Luminosity | Snow |
|---|---|---|---|---|---|---|---|
| 1788023931 | 26.67° C | 89% | 1019.7 hPa | 0 mm | - | 377 W/m² | - |
| 1788023626 | 26.67° C | 89% | 1019.6 hPa | 0 mm | - | 443 W/m² | - |
| 1788023322 | 26.11° C | 90% | 1019.5 hPa | 0 mm | - | 415 W/m² | - |
| 1788023017 | 26.11° C | 90% | 1019.5 hPa | 0 mm | - | 294 W/m² | - |
| 1788022714 | 26.11° C | 89% | 1019.4 hPa | 0 mm | - | 274 W/m² | - |
| 1788022412 | 26.11° C | 89% | 1019.5 hPa | 0 mm | - | 261 W/m² | - |
| 1788022107 | 26.11° C | 89% | 1019.5 hPa | 0 mm | - | 294 W/m² | - |
| 1788021801 | 26.11° C | 91% | 1019.4 hPa | 0 mm | - | 310 W/m² | - |
| 1788021499 | 26.11° C | 91% | 1019.5 hPa | 0 mm | - | 329 W/m² | - |
| 1788021194 | 26.11° C | 91% | 1019.5 hPa | 0 mm | - | 326 W/m² | - |
| 1788020889 | 26.11° C | 91% | 1019.6 hPa | 0 mm | - | 357 W/m² | - |
| 1788020583 | 26.11° C | 90% | 1019.7 hPa | 0 mm | - | 371 W/m² | - |
| 1788020280 | 26.11° C | 90% | 1019.5 hPa | 0 mm | - | 455 W/m² | - |
| 1788019975 | 26.11° C | 90% | 1019.6 hPa | 0 mm | - | 375 W/m² | - |
| 1788019669 | 26.11° C | 89% | 1019.4 hPa | 0 mm | - | 452 W/m² | - |
| 1788019363 | 26.11° C | 89% | 1019.3 hPa | 0 mm | - | 437 W/m² | - |
| 1788019061 | 25.56° C | 91% | 1019.2 hPa | 0 mm | - | 526 W/m² | - |
| 1788018756 | 25.56° C | 91% | 1019.3 hPa | 0 mm | - | 346 W/m² | - |
| 1788018451 | 25.56° C | 92% | 1019.6 hPa | 0 mm | - | 342 W/m² | - |
| 1788018150 | 25.56° C | 93% | 1019.4 hPa | 0 mm | - | 359 W/m² | - |
| 1788017847 | 25.56° C | 95% | 1019.5 hPa | 0 mm | - | 357 W/m² | - |
| 1788017542 | 25.56° C | 96% | 1019.6 hPa | 0 mm | - | 305 W/m² | - |
| 1788017239 | 25.56° C | 96% | 1019.4 hPa | 0 mm | - | 330 W/m² | - |
| 1788016934 | 25° C | 97% | 1019.6 hPa | 0 mm | - | 259 W/m² | - |
| 1788016633 | 25° C | 97% | 1019.6 hPa | 0 mm | - | 225 W/m² | - |
* Rain latest hour (hover to see other rain measurements)
** Current wind speed in m/s (hover to see current wind gust speed)